WXM80 ListenWXM80 Stop

You find our weather info also at:

UK Metoffice

WeatherCloud

Weather Underground

Northeastern Weather Network

AWEKAS

Citizen Weather Observer Program (CWOP)

HAMweather, WeatherForYou, PWS Weather


Weather Underground History page Text

Daily Summary for October 20, 2016 Units:  English    Metric   Both
« Previous Day
Next Day »
Daily Weekly Monthly Yearly Custom
  High: Low: Average:
Temperature: 70.1 °F 60.3 °F 64.7 °F
Dew Point: 64.0 °F 54.8 °F 60.1 °F
Humidity: 95 % 75 % 85 %
Wind Speed: 10.0 mph 0.0 mph 2.6 mph
Wind Gust: 14.0 mph - -
Wind:- - ENE
Pressure: 30.14 in 29.95 in -
Precipitation: 0.01 in    
Historical Graphs
 
 
Tabular Data for October 20, 2016
Time Temperature Dew Point Pressure Wind Wind Speed Wind Gust Humidity Rainfall Rate (Hourly)
00:03 62.1 °F 56.2 °F 30.11 in Calm     81 % 0.00 in
00:09 62.0 °F 56.1 °F 30.11 in Calm     81 % 0.00 in
00:14 61.9 °F 56.0 °F 30.11 in Calm     81 % 0.00 in
00:19 61.8 °F 56.2 °F 30.11 in Calm     82 % 0.00 in
00:24 61.6 °F 56.0 °F 30.11 in Calm     82 % 0.00 in
00:29 61.5 °F 56.0 °F 30.10 in Calm     82 % 0.00 in
00:34 61.4 °F 55.9 °F 30.10 in NE 0.2 mph 2.3 mph 82 % 0.00 in
00:39 61.3 °F 55.8 °F 30.10 in Calm   2.3 mph 82 % 0.00 in
00:44 61.1 °F 55.9 °F 30.10 in Calm     83 % 0.00 in
00:49 61.0 °F 55.8 °F 30.10 in Calm   1.2 mph 83 % 0.00 in
00:54 60.9 °F 55.7 °F 30.11 in ENE 0.8 mph 2.0 mph 83 % 0.00 in
01:00 60.8 °F 55.6 °F 30.10 in ENE 0.7 mph 1.2 mph 83 % 0.00 in
01:05 60.6 °F 55.4 °F 30.11 in NNE 0.8 mph 3.5 mph 83 % 0.00 in
01:10 60.5 °F 55.3 °F 30.11 in ENE 3.2 mph 4.6 mph 83 % 0.00 in
01:15 60.4 °F 55.2 °F 30.11 in NE 0.2 mph 3.5 mph 83 % 0.00 in
01:20 60.3 °F 54.8 °F 30.11 in ENE 1.0 mph 2.3 mph 82 % 0.00 in
01:25 60.3 °F 54.8 °F 30.11 in NE 1.4 mph 3.5 mph 82 % 0.00 in
01:30 60.4 °F 55.2 °F 30.11 in NE 0.3 mph 1.0 mph 83 % 0.00 in
01:35 60.4 °F 55.2 °F 30.11 in NE 0.1 mph 1.2 mph 83 % 0.00 in
01:40 60.5 °F 55.3 °F 30.11 in Calm   1.2 mph 83 % 0.00 in
01:45 60.5 °F 55.3 °F 30.10 in Calm   1.2 mph 83 % 0.00 in
01:50 60.6 °F 55.7 °F 30.10 in Calm   1.0 mph 84 % 0.00 in
01:51 60.6 °F 55.7 °F 30.10 in NE 0.2 mph 1.0 mph 84 % 0.00 in
01:55 60.6 °F 55.7 °F 30.10 in NE 1.0 mph 2.0 mph 84 % 0.00 in
01:56 60.6 °F 55.7 °F 30.11 in Calm   2.0 mph 84 % 0.00 in
02:01 60.5 °F 55.6 °F 30.10 in NE 1.4 mph 3.5 mph 84 % 0.00 in
02:05 60.5 °F 55.6 °F 30.10 in ENE 3.0 mph 5.0 mph 84 % 0.00 in
02:06 60.5 °F 55.6 °F 30.10 in NE 2.6 mph 4.6 mph 84 % 0.00 in
02:10 60.5 °F 55.6 °F 30.10 in ENE 3.0 mph 4.0 mph 84 % 0.00 in
02:11 60.5 °F 55.6 °F 30.10 in ENE 2.4 mph 3.5 mph 84 % 0.00 in
02:15 60.5 °F 55.6 °F 30.10 in ENE 3.0 mph 5.0 mph 84 % 0.00 in
02:16 60.4 °F 55.5 °F 30.10 in ENE 2.4 mph 4.0 mph 84 % 0.00 in
02:20 60.5 °F 55.6 °F 30.10 in ENE 3.0 mph 6.0 mph 84 % 0.00 in
02:21 60.5 °F 55.6 °F 30.10 in ENE 2.1 mph 3.5 mph 84 % 0.00 in
02:25 60.6 °F 55.7 °F 30.10 in ENE 1.0 mph 3.0 mph 84 % 0.00 in
02:26 60.6 °F 55.7 °F 30.10 in NE 1.9 mph 4.0 mph 84 % 0.00 in
02:30 60.7 °F 55.8 °F 30.10 in NE 2.0 mph 4.0 mph 84 % 0.00 in
02:31 60.7 °F 55.8 °F 30.10 in NE 1.9 mph 3.5 mph 84 % 0.00 in
02:35 60.7 °F 56.2 °F 30.10 in NE 2.0 mph 4.0 mph 85 % 0.00 in
02:36 60.8 °F 56.3 °F 30.10 in ENE 2.0 mph 3.5 mph 85 % 0.00 in
02:40 60.8 °F 56.3 °F 30.10 in NE 3.0 mph 4.0 mph 85 % 0.00 in
02:41 60.9 °F 56.4 °F 30.10 in NE 3.1 mph 3.5 mph 85 % 0.00 in
02:45 61.0 °F 56.8 °F 30.10 in ENE 2.0 mph 5.0 mph 86 % 0.00 in
02:47 61.0 °F 56.8 °F 30.10 in NE 2.6 mph 4.0 mph 86 % 0.00 in
02:50 61.1 °F 57.2 °F 30.10 in ENE 3.0 mph 6.0 mph 87 % 0.00 in
02:52 61.2 °F 57.0 °F 30.10 in ENE 2.8 mph 5.8 mph 86 % 0.00 in
02:55 61.3 °F 56.8 °F 30.09 in ENE 3.0 mph 4.0 mph 85 % 0.00 in
02:57 61.3 °F 56.8 °F 30.09 in ENE 3.3 mph 5.8 mph 85 % 0.00 in
03:02 61.4 °F 56.5 °F 30.10 in ENE 2.9 mph 4.6 mph 84 % 0.00 in
03:05 61.6 °F 56.4 °F 30.10 in ENE 3.0 mph 7.0 mph 83 % 0.00 in
03:07 61.6 °F 56.4 °F 30.09 in ENE 3.6 mph 5.0 mph 83 % 0.00 in
03:10 61.7 °F 56.5 °F 30.09 in ENE 3.0 mph 7.0 mph 83 % 0.00 in
03:12 61.7 °F 56.5 °F 30.10 in ENE 3.1 mph 5.8 mph 83 % 0.00 in
03:15 61.8 °F 56.6 °F 30.10 in ENE 5.0 mph 7.0 mph 83 % 0.00 in
03:17 61.9 °F 56.7 °F 30.10 in ENE 4.9 mph 6.9 mph 83 % 0.00 in
03:20 62.0 °F 56.8 °F 30.09 in ENE 3.0 mph 7.0 mph 83 % 0.00 in
03:22 62.1 °F 56.9 °F 30.10 in ENE 3.9 mph 6.9 mph 83 % 0.00 in
03:25 62.1 °F 56.5 °F 30.10 in ENE 3.0 mph 7.0 mph 82 % 0.00 in
03:27 62.2 °F 56.6 °F 30.10 in ENE 4.1 mph 7.0 mph 82 % 0.00 in
03:30 62.3 °F 56.7 °F 30.10 in ENE 3.0 mph 7.0 mph 82 % 0.00 in
03:32 62.3 °F 56.7 °F 30.10 in NE 3.0 mph 5.0 mph 82 % 0.00 in
03:35 62.4 °F 56.8 °F 30.10 in ENE 3.0 mph 8.0 mph 82 % 0.00 in
03:37 62.5 °F 56.9 °F 30.10 in ENE 2.9 mph 6.9 mph 82 % 0.00 in
03:40 62.5 °F 57.3 °F 30.10 in ENE 3.0 mph 8.0 mph 83 % 0.00 in
03:43 62.5 °F 57.3 °F 30.10 in NE 4.1 mph 4.6 mph 83 % 0.00 in
03:45 62.6 °F 57.4 °F 30.10 in ENE 3.0 mph 6.0 mph 83 % 0.00 in
03:48 62.6 °F 57.4 °F 30.10 in ENE 3.9 mph 5.8 mph 83 % 0.00 in
03:50 62.6 °F 57.4 °F 30.10 in ENE 3.0 mph 7.0 mph 83 % 0.00 in
03:53 62.6 °F 57.4 °F 30.10 in ENE 4.3 mph 8.1 mph 83 % 0.00 in
03:55 62.7 °F 57.5 °F 30.10 in ENE 6.0 mph 9.0 mph 83 % 0.00 in
03:58 62.7 °F 57.5 °F 30.10 in ENE 3.6 mph 5.0 mph 83 % 0.00 in
04:03 62.8 °F 57.2 °F 30.10 in East 5.2 mph 9.2 mph 82 % 0.00 in
04:05 62.8 °F 57.2 °F 30.10 in ENE 3.0 mph 9.0 mph 82 % 0.00 in
04:08 62.8 °F 56.9 °F 30.10 in ENE 4.1 mph 6.9 mph 81 % 0.00 in
04:10 62.8 °F 57.2 °F 30.10 in ENE 3.0 mph 7.0 mph 82 % 0.00 in
04:13 62.9 °F 57.3 °F 30.10 in NE 4.0 mph 9.2 mph 82 % 0.00 in
04:15 62.8 °F 57.2 °F 30.10 in ENE 5.0 mph 9.0 mph 82 % 0.00 in
04:18 62.8 °F 57.2 °F 30.10 in ENE 4.1 mph 6.9 mph 82 % 0.00 in
04:20 62.8 °F 57.2 °F 30.10 in ENE 3.0 mph 8.0 mph 82 % 0.00 in
04:23 62.7 °F 57.1 °F 30.10 in ENE 4.2 mph 4.6 mph 82 % 0.00 in
04:25 62.8 °F 57.6 °F 30.10 in ENE 3.0 mph 9.0 mph 83 % 0.00 in
04:28 62.8 °F 57.6 °F 30.10 in NE 3.5 mph 8.1 mph 83 % 0.00 in
04:30 62.7 °F 57.5 °F 30.10 in ENE 3.0 mph 8.0 mph 83 % 0.00 in
04:34 62.7 °F 57.5 °F 30.10 in ENE 2.9 mph 4.6 mph 83 % 0.00 in
04:35 62.7 °F 57.5 °F 30.10 in ENE 3.0 mph 6.0 mph 83 % 0.00 in
04:39 62.7 °F 57.8 °F 30.10 in NE 3.6 mph 6.9 mph 84 % 0.00 in
04:40 62.6 °F 57.7 °F 30.10 in ENE 3.0 mph 7.0 mph 84 % 0.00 in
04:44 62.6 °F 57.7 °F 30.11 in ENE 2.6 mph 5.8 mph 84 % 0.00 in
04:45 62.6 °F 57.7 °F 30.11 in ENE 3.0 mph 6.0 mph 84 % 0.00 in
04:49 62.5 °F 57.6 °F 30.11 in ENE 4.5 mph 8.1 mph 84 % 0.00 in
04:50 62.5 °F 57.9 °F 30.11 in ENE 3.0 mph 8.0 mph 85 % 0.00 in
04:54 62.5 °F 57.9 °F 30.11 in NE 2.9 mph 4.6 mph 85 % 0.00 in
04:55 62.5 °F 57.9 °F 30.11 in ENE 2.0 mph 5.0 mph 85 % 0.00 in
04:59 62.4 °F 58.2 °F 30.11 in NE 3.3 mph 4.6 mph 86 % 0.00 in
05:04 62.4 °F 58.2 °F 30.11 in ENE 2.7 mph 3.5 mph 86 % 0.00 in
05:05 62.4 °F 58.2 °F 30.11 in ENE 3.0 mph 7.0 mph 86 % 0.00 in
05:09 62.4 °F 58.2 °F 30.11 in ENE 2.1 mph 3.5 mph 86 % 0.00 in
05:10 62.4 °F 58.2 °F 30.11 in ENE 2.0 mph 8.0 mph 86 % 0.00 in
05:14 62.3 °F 58.1 °F 30.12 in ENE 3.6 mph 4.6 mph 86 % 0.00 in
05:15 62.3 °F 58.1 °F 30.12 in ENE 3.0 mph 5.0 mph 86 % 0.00 in
05:19 62.4 °F 58.2 °F 30.12 in ENE 1.8 mph 4.6 mph 86 % 0.00 in
05:25 62.4 °F 58.2 °F 30.12 in NE 3.8 mph 6.9 mph 86 % 0.00 in
05:30 62.3 °F 57.7 °F 30.12 in ENE 4.6 mph 8.1 mph 85 % 0.00 in
05:35 62.3 °F 57.7 °F 30.11 in ENE 3.0 mph 6.9 mph 85 % 0.00 in
05:40 62.3 °F 57.7 °F 30.12 in NE 3.1 mph 4.0 mph 85 % 0.00 in
05:45 62.3 °F 57.7 °F 30.12 in ENE 3.9 mph 6.9 mph 85 % 0.00 in
05:50 62.3 °F 57.7 °F 30.12 in ENE 2.9 mph 3.5 mph 85 % 0.00 in
05:55 62.3 °F 57.7 °F 30.11 in ENE 5.5 mph 8.1 mph 85 % 0.00 in
06:00 62.3 °F 57.4 °F 30.12 in ENE 4.3 mph 5.8 mph 84 % 0.00 in
06:05 62.3 °F 57.4 °F 30.12 in ENE 5.4 mph 9.2 mph 84 % 0.00 in
06:10 62.4 °F 57.5 °F 30.12 in East 3.7 mph 5.0 mph 84 % 0.00 in
06:15 62.4 °F 57.2 °F 30.12 in ENE 2.0 mph 9.0 mph 83 % 0.00 in
06:20 62.4 °F 57.2 °F 30.12 in ENE 5.0 mph 9.0 mph 83 % 0.00 in
06:25 62.4 °F 57.2 °F 30.12 in NNE 4.7 mph 9.2 mph 83 % 0.00 in
06:30 62.3 °F 56.8 °F 30.12 in ENE 3.0 mph 8.0 mph 82 % 0.00 in
06:35 62.3 °F 57.1 °F 30.12 in ENE 5.0 mph 9.0 mph 83 % 0.00 in
06:40 62.3 °F 56.7 °F 30.11 in ENE 3.7 mph 6.9 mph 82 % 0.00 in
06:45 62.2 °F 57.0 °F 30.11 in ENE 2.0 mph 4.0 mph 83 % 0.00 in
06:50 62.2 °F 56.9 °F 30.12 in ENE 5.0 mph 10.0 mph 83 % 0.00 in
06:55 62.1 °F 57.2 °F 30.12 in ENE 6.0 mph 11.0 mph 84 % 0.00 in
06:56 62.1 °F 57.2 °F 30.12 in ENE 5.0 mph 12.0 mph 84 % 0.00 in
07:01 62.1 °F 57.2 °F 30.12 in ENE 8.2 mph 10.4 mph 84 % 0.00 in
07:05 62.1 °F 57.2 °F 30.12 in ENE 5.0 mph 12.0 mph 84 % 0.00 in
07:06 62.1 °F 57.2 °F 30.12 in ENE 4.6 mph 10.4 mph 84 % 0.00 in
07:10 62.2 °F 57.3 °F 30.12 in ENE 6.0 mph 11.0 mph 84 % 0.00 in
07:11 62.2 °F 57.3 °F 30.12 in ENE 5.4 mph 11.5 mph 84 % 0.00 in
07:15 62.2 °F 57.6 °F 30.12 in ENE 5.5 mph 9.2 mph 85 % 0.00 in
07:20 62.2 °F 57.6 °F 30.12 in ENE 7.2 mph 10.4 mph 85 % 0.00 in
07:25 62.3 °F 57.7 °F 30.12 in ENE 5.3 mph 9.2 mph 85 % 0.00 in
07:30 62.3 °F 57.7 °F 30.12 in ENE 4.5 mph 8.1 mph 85 % 0.00 in
07:35 62.3 °F 57.7 °F 30.12 in ENE 7.0 mph 9.2 mph 85 % 0.00 in
07:40 62.4 °F 57.8 °F 30.12 in ENE 7.4 mph 14.0 mph 85 % 0.00 in
07:45 62.5 °F 57.6 °F 30.12 in ENE 4.8 mph 11.5 mph 84 % 0.00 in
07:50 62.5 °F 57.9 °F 30.12 in ENE 5.0 mph 9.0 mph 85 % 0.00 in
07:55 62.5 °F 57.9 °F 30.12 in ENE 3.0 mph 8.0 mph 85 % 0.00 in
07:56 62.5 °F 58.3 °F 30.12 in ENE 3.0 mph 8.0 mph 86 % 0.00 in
08:01 62.5 °F 57.3 °F 30.12 in ENE 3.1 mph 5.0 mph 83 % 0.00 in
08:05 62.6 °F 57.7 °F 30.12 in East 3.0 mph 9.0 mph 84 % 0.00 in
08:06 62.6 °F 57.7 °F 30.12 in ENE 4.4 mph 9.2 mph 84 % 0.00 in
08:10 62.7 °F 57.5 °F 30.12 in ENE 5.0 mph 10.0 mph 83 % 0.00 in
08:11 62.7 °F 57.5 °F 30.12 in NE 5.1 mph 10.4 mph 83 % 0.00 in
08:15 62.8 °F 57.9 °F 30.12 in ENE 3.0 mph 8.0 mph 84 % 0.00 in
08:16 62.9 °F 58.0 °F 30.12 in East 3.0 mph 4.6 mph 84 % 0.00 in
08:20 63.0 °F 57.8 °F 30.12 in East 3.0 mph 6.0 mph 83 % 0.00 in
08:21 63.0 °F 57.8 °F 30.12 in East 3.6 mph 5.0 mph 83 % 0.00 in
08:25 63.1 °F 57.5 °F 30.12 in East 3.0 mph 7.0 mph 82 % 0.00 in
08:26 63.1 °F 57.5 °F 30.12 in East 4.1 mph 6.9 mph 82 % 0.00 in
08:30 63.2 °F 57.6 °F 30.12 in East 3.0 mph 7.0 mph 82 % 0.00 in
08:31 63.2 °F 57.6 °F 30.12 in East 4.5 mph 6.0 mph 82 % 0.00 in
08:35 63.4 °F 57.8 °F 30.12 in East 3.0 mph 6.0 mph 82 % 0.00 in
08:36 63.4 °F 57.8 °F 30.12 in East 3.6 mph 5.8 mph 82 % 0.00 in
08:40 63.5 °F 57.9 °F 30.13 in East 3.0 mph 6.0 mph 82 % 0.00 in
08:41 63.6 °F 58.0 °F 30.13 in East 2.8 mph 4.6 mph 82 % 0.00 in
08:45 63.7 °F 58.1 °F 30.13 in East 3.0 mph 7.0 mph 82 % 0.00 in
08:47 63.7 °F 58.1 °F 30.12 in East 3.5 mph 4.6 mph 82 % 0.00 in
08:50 63.7 °F 57.8 °F 30.13 in East 3.0 mph 6.0 mph 81 % 0.00 in
08:52 63.8 °F 57.9 °F 30.13 in East 3.6 mph 5.0 mph 81 % 0.00 in
08:55 63.8 °F 58.2 °F 30.13 in East 3.0 mph 7.0 mph 82 % 0.00 in
08:57 63.8 °F 58.2 °F 30.13 in East 3.2 mph 6.9 mph 82 % 0.00 in
09:02 64.0 °F 58.4 °F 30.13 in East 4.0 mph 5.0 mph 82 % 0.00 in
09:05 64.1 °F 58.1 °F 30.13 in East 3.0 mph 6.0 mph 81 % 0.00 in
09:07 64.1 °F 58.5 °F 30.13 in East 2.9 mph 4.6 mph 82 % 0.00 in
09:12 64.3 °F 59.0 °F 30.13 in East 3.2 mph 5.0 mph 83 % 0.00 in
09:15 64.5 °F 58.5 °F 30.13 in East 3.0 mph 7.0 mph 81 % 0.00 in
09:17 64.5 °F 58.5 °F 30.13 in East 3.7 mph 6.0 mph 81 % 0.00 in
09:20 64.6 °F 58.6 °F 30.13 in East 3.0 mph 7.0 mph 81 % 0.00 in
09:22 64.7 °F 59.1 °F 30.13 in ENE 3.8 mph 4.6 mph 82 % 0.00 in
09:25 64.8 °F 59.2 °F 30.13 in East 3.0 mph 6.0 mph 82 % 0.00 in
09:27 64.9 °F 59.3 °F 30.13 in East 3.3 mph 5.0 mph 82 % 0.00 in
09:30 65.1 °F 59.5 °F 30.13 in East 2.0 mph 5.0 mph 82 % 0.00 in
09:32 65.3 °F 59.7 °F 30.13 in East 3.3 mph 3.5 mph 82 % 0.00 in
09:35 65.5 °F 59.5 °F 30.14 in East 3.0 mph 9.0 mph 81 % 0.00 in
09:38 65.7 °F 59.4 °F 30.14 in East 4.0 mph 11.5 mph 80 % 0.00 in
09:40 65.8 °F 59.5 °F 30.13 in ENE 3.0 mph 11.0 mph 80 % 0.00 in
09:43 65.9 °F 59.2 °F 30.14 in East 4.0 mph 5.0 mph 79 % 0.00 in
09:45 66.0 °F 59.3 °F 30.14 in East 5.0 mph 8.0 mph 79 % 0.00 in
09:48 66.1 °F 59.4 °F 30.14 in East 4.5 mph 8.0 mph 79 % 0.00 in
09:50 66.3 °F 59.6 °F 30.13 in East 6.0 mph 10.0 mph 79 % 0.00 in
09:53 66.5 °F 59.8 °F 30.13 in East 4.7 mph 6.9 mph 79 % 0.00 in
09:55 66.8 °F 60.1 °F 30.13 in East 3.0 mph 7.0 mph 79 % 0.00 in
09:58 67.0 °F 59.5 °F 30.13 in East 4.4 mph 8.0 mph 77 % 0.00 in
10:03 66.8 °F 58.6 °F 30.13 in East 4.7 mph 6.9 mph 75 % 0.00 in
10:05 66.7 °F 59.3 °F 30.13 in East 3.0 mph 13.0 mph 77 % 0.00 in
10:08 66.7 °F 59.3 °F 30.13 in East 4.2 mph 6.0 mph 77 % 0.00 in
10:10 66.6 °F 59.2 °F 30.13 in East 6.0 mph 8.0 mph 77 % 0.00 in
10:13 66.5 °F 58.7 °F 30.12 in East 4.7 mph 8.1 mph 76 % 0.00 in
10:15 66.4 °F 58.6 °F 30.12 in ENE 5.0 mph 8.0 mph 76 % 0.00 in
10:20 66.2 °F 58.8 °F 30.12 in ENE 5.0 mph 8.0 mph 77 % 0.00 in
10:23 66.2 °F 58.8 °F 30.12 in East 5.0 mph 6.9 mph 77 % 0.00 in
10:25 66.3 °F 58.9 °F 30.12 in East 5.0 mph 7.0 mph 77 % 0.00 in
10:28 66.4 °F 59.3 °F 30.12 in East 5.3 mph 6.0 mph 78 % 0.00 in
10:30 66.5 °F 59.4 °F 30.12 in East 3.0 mph 7.0 mph 78 % 0.00 in
10:33 66.6 °F 59.5 °F 30.12 in ENE 3.9 mph 5.8 mph 78 % 0.00 in
10:35 66.7 °F 59.6 °F 30.12 in East 3.0 mph 7.0 mph 78 % 0.00 in
10:39 66.9 °F 59.8 °F 30.12 in ENE 4.4 mph 6.9 mph 78 % 0.00 in
10:40 66.9 °F 59.5 °F 30.12 in ENE 3.0 mph 7.0 mph 77 % 0.00 in
10:44 66.9 °F 59.1 °F 30.12 in East 3.5 mph 7.0 mph 76 % 0.00 in
10:45 66.9 °F 59.5 °F 30.12 in East 3.0 mph 8.0 mph 77 % 0.00 in
10:49 67.0 °F 59.5 °F 30.11 in ENE 3.2 mph 4.6 mph 77 % 0.00 in
10:50 67.0 °F 59.9 °F 30.11 in ENE 3.0 mph 7.0 mph 78 % 0.00 in
10:54 67.3 °F 60.2 °F 30.11 in ENE 4.2 mph 8.1 mph 78 % 0.00 in
10:55 67.5 °F 60.0 °F 30.11 in ENE 8.0 mph 10.0 mph 77 % 0.00 in
10:59 67.6 °F 59.8 °F 30.11 in ENE 3.3 mph 6.9 mph 76 % 0.00 in
11:04 67.9 °F 59.7 °F 30.11 in ENE 4.1 mph 11.5 mph 75 % 0.00 in
11:05 68.0 °F 60.2 °F 30.12 in ENE 3.0 mph 11.0 mph 76 % 0.00 in
11:09 68.2 °F 60.7 °F 30.11 in NE 6.8 mph 10.4 mph 77 % 0.00 in
11:10 68.3 °F 61.2 °F 30.11 in ENE 5.0 mph 12.0 mph 78 % 0.00 in
11:14 68.6 °F 61.1 °F 30.11 in ENE 4.5 mph 11.5 mph 77 % 0.00 in
11:15 68.7 °F 60.8 °F 30.11 in ENE 7.0 mph 12.0 mph 76 % 0.00 in
11:19 68.7 °F 60.8 °F 30.11 in ENE 3.9 mph 7.0 mph 76 % 0.00 in
11:20 68.7 °F 60.8 °F 30.11 in ENE 7.0 mph 10.0 mph 76 % 0.00 in
11:24 68.5 °F 61.0 °F 30.11 in ENE 5.8 mph 12.7 mph 77 % 0.00 in
11:25 68.5 °F 61.0 °F 30.11 in ENE 3.0 mph 13.0 mph 77 % 0.00 in
11:30 68.6 °F 61.1 °F 30.11 in ENE 5.2 mph 7.0 mph 77 % 0.00 in
11:35 68.7 °F 61.2 °F 30.11 in East 6.2 mph 10.4 mph 77 % 0.00 in
11:40 68.8 °F 61.3 °F 30.11 in East 6.0 mph 9.2 mph 77 % 0.00 in
11:45 69.2 °F 61.7 °F 30.11 in ENE 7.6 mph 10.4 mph 77 % 0.00 in
11:50 69.4 °F 61.9 °F 30.11 in ENE 6.8 mph 11.5 mph 77 % 0.00 in
11:55 69.7 °F 62.2 °F 30.11 in ENE 5.4 mph 9.2 mph 77 % 0.00 in
12:00 70.1 °F 62.6 °F 30.11 in ENE 5.7 mph 10.4 mph 77 % 0.00 in
12:05 70.1 °F 62.6 °F 30.10 in ENE 7.1 mph 11.5 mph 77 % 0.00 in
12:10 70.0 °F 62.5 °F 30.11 in ENE 3.4 mph 10.4 mph 77 % 0.00 in
12:15 70.1 °F 62.9 °F 30.10 in ENE 3.1 mph 4.6 mph 78 % 0.00 in
12:20 70.1 °F 62.6 °F 30.10 in ENE 2.6 mph 4.6 mph 77 % 0.00 in
12:25 70.1 °F 62.9 °F 30.10 in ENE 3.0 mph 8.0 mph 78 % 0.00 in
12:26 70.1 °F 62.9 °F 30.10 in ENE 2.0 mph 8.0 mph 78 % 0.00 in
12:30 69.8 °F 62.6 °F 30.10 in ENE 3.0 mph 7.0 mph 78 % 0.00 in
12:31 69.8 °F 62.3 °F 30.10 in ENE 3.0 mph 7.0 mph 77 % 0.00 in
12:35 69.4 °F 62.2 °F 30.10 in ENE 3.0 mph 10.0 mph 78 % 0.00 in
12:36 69.4 °F 62.3 °F 30.10 in ENE 2.0 mph 10.0 mph 78 % 0.00 in
12:40 69.0 °F 62.2 °F 30.09 in ENE 3.0 mph 7.0 mph 79 % 0.00 in
12:41 69.1 °F 62.3 °F 30.10 in ENE 2.0 mph 7.0 mph 79 % 0.00 in
12:45 68.7 °F 61.9 °F 30.09 in ENE 5.0 mph 11.0 mph 79 % 0.00 in
12:46 68.8 °F 62.0 °F 30.09 in ENE 5.0 mph 9.0 mph 79 % 0.00 in
12:50 68.5 °F 62.4 °F 30.09 in ENE 3.0 mph 10.0 mph 81 % 0.00 in
12:51 68.5 °F 62.1 °F 30.09 in ENE 5.0 mph 8.0 mph 80 % 0.00 in
12:55 68.4 °F 62.7 °F 30.09 in ENE 3.0 mph 9.0 mph 82 % 0.00 in
12:56 68.4 °F 62.3 °F 30.09 in ENE 3.0 mph 9.0 mph 81 % 0.00 in
13:01 68.5 °F 63.1 °F 30.08 in East 4.1 mph 8.0 mph 83 % 0.00 in
13:05 69.0 °F 63.6 °F 30.08 in ENE 3.0 mph 9.0 mph 83 % 0.00 in
13:06 69.0 °F 63.3 °F 30.08 in NE 3.5 mph 6.9 mph 82 % 0.00 in
13:10 69.4 °F 63.3 °F 30.08 in ENE 3.0 mph 9.0 mph 81 % 0.00 in
13:11 69.4 °F 63.3 °F 30.08 in ENE 3.4 mph 8.1 mph 81 % 0.00 in
13:15 69.4 °F 63.0 °F 30.08 in ENE 6.0 mph 10.0 mph 80 % 0.00 in
13:16 69.4 °F 63.0 °F 30.08 in ENE 4.9 mph 10.4 mph 80 % 0.00 in
13:20 69.2 °F 63.1 °F 30.08 in ENE 7.0 mph 10.0 mph 81 % 0.00 in
13:21 69.2 °F 63.1 °F 30.08 in ENE 5.1 mph 10.4 mph 81 % 0.00 in
13:25 68.9 °F 62.8 °F 30.07 in ENE 3.0 mph 11.0 mph 81 % 0.00 in
13:30 68.6 °F 62.9 °F 30.07 in ENE 3.0 mph 12.0 mph 82 % 0.00 in
13:35 68.5 °F 62.8 °F 30.07 in ENE 7.0 mph 12.0 mph 82 % 0.00 in
13:40 68.4 °F 63.0 °F 30.07 in ENE 6.0 mph 13.0 mph 83 % 0.00 in
13:45 68.4 °F 62.7 °F 30.07 in ENE 3.0 mph 11.0 mph 82 % 0.00 in
13:50 68.3 °F 62.9 °F 30.07 in ENE 3.0 mph 11.0 mph 83 % 0.00 in
13:55 68.2 °F 62.5 °F 30.07 in ENE 5.0 mph 10.0 mph 82 % 0.00 in
14:05 68.0 °F 62.6 °F 30.07 in ENE 6.0 mph 11.0 mph 83 % 0.00 in
14:10 68.0 °F 62.6 °F 30.07 in ENE 5.0 mph 9.0 mph 83 % 0.00 in
14:15 67.9 °F 62.5 °F 30.07 in ENE 6.0 mph 11.0 mph 83 % 0.00 in
14:20 67.7 °F 62.3 °F 30.07 in ENE 6.0 mph 11.0 mph 83 % 0.00 in
14:25 67.6 °F 62.6 °F 30.07 in ENE 7.0 mph 10.0 mph 84 % 0.00 in
14:30 67.5 °F 62.5 °F 30.06 in ENE 3.0 mph 11.0 mph 84 % 0.00 in
14:35 67.5 °F 62.8 °F 30.07 in ENE 3.0 mph 9.0 mph 85 % 0.00 in
14:40 67.4 °F 62.7 °F 30.06 in ENE 7.0 mph 11.0 mph 85 % 0.00 in
14:45 67.2 °F 62.9 °F 30.06 in ENE 3.0 mph 12.0 mph 86 % 0.00 in
14:50 67.1 °F 62.8 °F 30.06 in ENE 7.0 mph 10.0 mph 86 % 0.00 in
14:55 67.0 °F 62.7 °F 30.06 in ENE 7.0 mph 10.0 mph 86 % 0.00 in
14:57 67.0 °F 62.7 °F 30.06 in ENE 10.0 mph 10.4 mph 86 % 0.00 in
15:02 66.9 °F 62.9 °F 30.06 in ENE 6.2 mph 7.0 mph 87 % 0.00 in
15:05 66.9 °F 62.9 °F 30.06 in East 5.7 mph 8.1 mph 87 % 0.00 in
15:10 66.8 °F 62.8 °F 30.06 in ENE 5.4 mph 8.1 mph 87 % 0.00 in
15:15 66.8 °F 63.1 °F 30.06 in ENE 3.2 mph 6.9 mph 88 % 0.00 in
15:20 66.9 °F 63.2 °F 30.06 in ENE 1.5 mph 4.0 mph 88 % 0.00 in
15:24 67.0 °F 63.6 °F 30.06 in NE 1.3 mph 3.5 mph 89 % 0.00 in
15:25 67.0 °F 63.6 °F 30.06 in ENE 1.0 mph 5.0 mph 89 % 0.00 in
15:26 67.0 °F 63.6 °F 30.06 in NE 1.4 mph 3.5 mph 89 % 0.00 in
15:30 67.0 °F 63.3 °F 30.06 in ENE 2.0 mph 4.0 mph 88 % 0.00 in
15:31 67.0 °F 63.3 °F 30.06 in ENE 2.4 mph 3.5 mph 88 % 0.00 in
15:35 67.1 °F 63.7 °F 30.06 in ENE 3.0 mph 5.0 mph 89 % 0.00 in
15:36 67.1 °F 63.7 °F 30.05 in ENE 3.1 mph 4.6 mph 89 % 0.00 in
15:40 67.2 °F 63.8 °F 30.06 in Calm   4.0 mph 89 % 0.00 in
15:41 67.2 °F 63.8 °F 30.06 in ENE 0.2 mph 1.2 mph 89 % 0.00 in
15:42 67.2 °F 63.8 °F 30.05 in ENE 2.4 mph 3.5 mph 89 % 0.00 in
15:45 67.2 °F 63.8 °F 30.05 in ENE 2.0 mph 4.0 mph 89 % 0.00 in
15:48 67.2 °F 63.8 °F 30.05 in NE 0.9 mph 3.0 mph 89 % 0.00 in
15:50 67.3 °F 63.9 °F 30.05 in NE 1.0 mph 3.0 mph 89 % 0.00 in
15:53 67.3 °F 63.9 °F 30.05 in NE 1.1 mph 2.3 mph 89 % 0.00 in
15:54 67.3 °F 63.9 °F 30.05 in NE 1.6 mph 2.3 mph 89 % 0.00 in
15:55 67.4 °F 64.0 °F 30.05 in NE 1.0 mph 2.0 mph 89 % 0.00 in
15:59 67.4 °F 64.0 °F 30.06 in ENE 1.6 mph 3.5 mph 89 % 0.00 in
16:05 67.4 °F 63.7 °F 30.05 in ENE 2.0 mph 5.0 mph 88 % 0.00 in
16:06 67.4 °F 63.7 °F 30.05 in East 1.9 mph 3.5 mph 88 % 0.00 in
16:10 67.4 °F 63.7 °F 30.05 in East 2.0 mph 5.0 mph 88 % 0.00 in
16:11 67.4 °F 63.7 °F 30.05 in East 1.7 mph 4.6 mph 88 % 0.00 in
16:15 67.4 °F 63.7 °F 30.05 in ESE 2.0 mph 3.0 mph 88 % 0.00 in
16:16 67.4 °F 63.7 °F 30.05 in ESE 2.0 mph 4.0 mph 88 % 0.00 in
16:20 67.4 °F 63.7 °F 30.04 in ESE 1.0 mph 5.0 mph 88 % 0.00 in
16:21 67.3 °F 63.6 °F 30.04 in ESE 1.2 mph 3.5 mph 88 % 0.00 in
16:25 67.3 °F 63.6 °F 30.04 in ESE 2.0 mph 3.0 mph 88 % 0.00 in
16:26 67.3 °F 63.6 °F 30.04 in ESE 1.3 mph 3.5 mph 88 % 0.00 in
16:30 67.2 °F 63.5 °F 30.04 in Calm   2.0 mph 88 % 0.00 in
16:31 67.2 °F 63.5 °F 30.04 in ESE 0.5 mph 1.2 mph 88 % 0.00 in
16:35 67.2 °F 63.5 °F 30.03 in ESE 1.0 mph 2.0 mph 88 % 0.00 in
16:40 67.1 °F 63.4 °F 30.04 in ESE 2.0 mph 5.0 mph 88 % 0.00 in
16:45 67.0 °F 63.3 °F 30.04 in ESE 1.0 mph 2.0 mph 88 % 0.00 in
16:48 67.0 °F 63.3 °F 30.04 in ESE 3.1 mph 4.6 mph 88 % 0.00 in
16:49 67.0 °F 63.3 °F 30.04 in ESE 1.8 mph 4.6 mph 88 % 0.00 in
16:50 66.9 °F 63.2 °F 30.04 in Calm   2.0 mph 88 % 0.00 in
16:54 66.9 °F 63.2 °F 30.04 in ESE 0.4 mph 2.3 mph 88 % 0.00 in
16:55 66.9 °F 63.2 °F 30.04 in ESE 1.0 mph 2.0 mph 88 % 0.00 in
16:57 66.9 °F 63.2 °F 30.04 in ESE 0.4 mph 2.3 mph 88 % 0.00 in
17:00 66.8 °F 63.1 °F 30.04 in ESE 0.9 mph 2.3 mph 88 % 0.00 in
17:05 66.7 °F 63.0 °F 30.04 in ESE 1.0 mph 2.0 mph 88 % 0.00 in
17:10 66.6 °F 62.9 °F 30.04 in East 1.3 mph 2.3 mph 88 % 0.00 in
17:15 66.5 °F 63.2 °F 30.04 in East 1.3 mph 2.3 mph 89 % 0.00 in
17:17 66.5 °F 63.2 °F 30.03 in East 1.5 mph 3.0 mph 89 % 0.00 in
17:20 66.4 °F 63.1 °F 30.03 in East 2.0 mph 3.0 mph 89 % 0.00 in
17:25 66.3 °F 63.3 °F 30.03 in East 2.0 mph 3.0 mph 90 % 0.00 in
17:30 66.2 °F 63.2 °F 30.03 in East 2.0 mph 3.0 mph 90 % 0.00 in
17:35 66.0 °F 63.0 °F 30.03 in East 2.0 mph 5.0 mph 90 % 0.00 in
17:40 65.8 °F 62.8 °F 30.02 in East 2.0 mph 5.0 mph 90 % 0.00 in
17:45 65.7 °F 62.7 °F 30.02 in East 2.0 mph 3.0 mph 90 % 0.00 in
17:50 65.5 °F 62.5 °F 30.02 in East 2.0 mph 3.0 mph 90 % 0.00 in
17:55 65.4 °F 62.4 °F 30.03 in Calm   3.0 mph 90 % 0.00 in
18:05 65.1 °F 62.4 °F 30.02 in East 1.0 mph 3.0 mph 91 % 0.00 in
18:10 65.0 °F 62.3 °F 30.02 in East 2.0 mph 2.0 mph 91 % 0.00 in
18:15 64.9 °F 62.2 °F 30.02 in East 1.0 mph 3.0 mph 91 % 0.00 in
18:20 64.8 °F 62.1 °F 30.02 in East 1.0 mph 3.0 mph 91 % 0.00 in
18:25 64.8 °F 62.1 °F 30.02 in East 2.0 mph 5.0 mph 91 % 0.00 in
18:30 64.7 °F 62.0 °F 30.02 in East 2.0 mph 3.0 mph 91 % 0.00 in
18:35 64.7 °F 62.0 °F 30.01 in East 1.0 mph 3.0 mph 91 % 0.00 in
18:40 64.6 °F 61.9 °F 30.02 in ESE 1.0 mph 3.0 mph 91 % 0.00 in
18:45 64.6 °F 61.9 °F 30.02 in ESE 1.0 mph 3.0 mph 91 % 0.00 in
18:50 64.6 °F 62.2 °F 30.01 in East 2.0 mph 2.0 mph 92 % 0.00 in
18:54 64.6 °F 62.2 °F 30.02 in ENE 1.6 mph 5.0 mph 92 % 0.00 in
18:55 64.6 °F 62.2 °F 30.02 in ENE 1.3 mph 2.3 mph 92 % 0.00 in
18:59 64.6 °F 62.2 °F 30.01 in ENE 1.1 mph 2.3 mph 92 % 0.00 in
19:04 64.5 °F 62.1 °F 30.01 in ENE 1.5 mph 2.3 mph 92 % 0.00 in
19:05 64.5 °F 62.1 °F 30.02 in Calm   3.0 mph 92 % 0.00 in
19:09 64.5 °F 62.1 °F 30.02 in ENE 0.2 mph 1.2 mph 92 % 0.00 in
19:11 64.5 °F 62.1 °F 30.02 in ENE 0.1 mph 1.2 mph 92 % 0.00 in
19:15 64.5 °F 62.1 °F 30.02 in Calm   2.0 mph 92 % 0.00 in
19:16 64.5 °F 62.1 °F 30.02 in Calm   1.2 mph 92 % 0.00 in
19:20 64.5 °F 62.1 °F 30.02 in ENE 1.0 mph 2.0 mph 92 % 0.00 in
19:21 64.5 °F 62.1 °F 30.02 in Calm   2.0 mph 92 % 0.00 in
19:25 64.5 °F 62.1 °F 30.01 in ENE 1.0 mph 2.0 mph 92 % 0.00 in
19:26 64.5 °F 62.1 °F 30.01 in ENE 0.4 mph 1.2 mph 92 % 0.00 in
19:30 64.4 °F 62.0 °F 30.01 in Calm   3.0 mph 92 % 0.00 in
19:31 64.5 °F 62.1 °F 30.01 in Calm   3.0 mph 92 % 0.00 in
19:32 64.4 °F 62.0 °F 30.01 in SSE 0.3 mph 3.5 mph 92 % 0.00 in
19:35 64.4 °F 62.0 °F 30.01 in ESE 1.0 mph 2.0 mph 92 % 0.00 in
19:37 64.4 °F 62.0 °F 30.01 in East 0.8 mph 3.0 mph 92 % 0.00 in
19:40 64.4 °F 62.0 °F 30.01 in ESE 2.0 mph 3.0 mph 92 % 0.00 in
19:42 64.4 °F 62.0 °F 30.01 in East 0.5 mph 3.5 mph 92 % 0.00 in
19:45 64.4 °F 62.0 °F 30.01 in East 2.0 mph 3.0 mph 92 % 0.00 in
19:47 64.4 °F 62.0 °F 30.01 in East 1.4 mph 3.0 mph 92 % 0.00 in
19:50 64.4 °F 62.0 °F 30.01 in East 2.0 mph 3.0 mph 92 % 0.00 in
19:52 64.4 °F 62.0 °F 30.01 in East 1.6 mph 3.5 mph 92 % 0.00 in
19:55 64.3 °F 61.9 °F 30.01 in East 1.0 mph 3.0 mph 92 % 0.00 in
19:57 64.3 °F 61.9 °F 30.01 in ESE 1.2 mph 2.3 mph 92 % 0.00 in
20:02 64.3 °F 61.9 °F 30.01 in East 0.4 mph 2.3 mph 92 % 0.00 in
20:05 64.3 °F 61.9 °F 30.00 in East 1.3 mph 2.3 mph 92 % 0.00 in
20:10 64.3 °F 61.9 °F 30.00 in ESE 0.9 mph 2.0 mph 92 % 0.00 in
20:15 64.3 °F 61.9 °F 30.00 in ESE 0.1 mph 3.5 mph 92 % 0.00 in
20:18 64.3 °F 61.9 °F 30.00 in ESE 0.1 mph 1.2 mph 92 % 0.00 in
20:20 64.2 °F 61.8 °F 30.00 in ESE 0.8 mph 2.3 mph 92 % 0.00 in
20:24 64.2 °F 61.8 °F 30.00 in ESE 0.4 mph 1.2 mph 92 % 0.00 in
20:25 64.2 °F 61.8 °F 30.00 in Calm   1.0 mph 92 % 0.00 in
20:27 64.2 °F 61.8 °F 30.00 in ESE 0.6 mph 2.3 mph 92 % 0.00 in
20:30 64.2 °F 61.8 °F 30.00 in Calm   2.0 mph 92 % 0.00 in
20:32 64.2 °F 61.8 °F 30.00 in East 0.5 mph 1.2 mph 92 % 0.00 in
20:35 64.2 °F 61.8 °F 30.00 in ESE 1.0 mph 2.0 mph 92 % 0.00 in
20:37 64.2 °F 61.8 °F 30.00 in East 0.3 mph 1.2 mph 92 % 0.00 in
20:39 64.2 °F 61.8 °F 30.00 in East 0.6 mph 2.3 mph 92 % 0.00 in
20:40 64.2 °F 61.8 °F 30.00 in Calm   2.0 mph 92 % 0.00 in
20:41 64.2 °F 61.8 °F 30.00 in East 0.2 mph 1.2 mph 92 % 0.00 in
20:43 64.2 °F 61.8 °F 30.00 in East 0.4 mph 1.2 mph 92 % 0.00 in
20:45 64.2 °F 61.8 °F 30.00 in Calm   1.0 mph 92 % 0.00 in
20:48 64.2 °F 61.8 °F 30.00 in Calm   1.2 mph 92 % 0.00 in
20:50 64.2 °F 61.8 °F 30.00 in North 1.0 mph 2.0 mph 92 % 0.00 in
20:53 64.2 °F 61.8 °F 30.00 in Calm   1.2 mph 92 % 0.00 in
20:55 64.2 °F 62.1 °F 30.00 in Calm   1.0 mph 93 % 0.00 in
20:56 64.2 °F 62.1 °F 30.00 in Calm     93 % 0.00 in
21:01 64.2 °F 62.1 °F 30.00 in East 0.1 mph 1.2 mph 93 % 0.00 in
21:05 64.2 °F 62.1 °F 30.00 in East 1.0 mph 1.0 mph 93 % 0.00 in
21:10 64.2 °F 62.1 °F 30.00 in Calm   2.0 mph 93 % 0.00 in
21:14 64.2 °F 62.1 °F 30.00 in East 0.5 mph 1.2 mph 93 % 0.00 in
21:15 64.2 °F 62.1 °F 29.99 in East 1.0 mph 2.0 mph 93 % 0.00 in
21:19 64.2 °F 62.1 °F 30.00 in Calm   1.2 mph 93 % 0.00 in
21:20 64.2 °F 62.1 °F 29.99 in Calm   2.0 mph 93 % 0.00 in
21:25 64.2 °F 62.1 °F 29.99 in Calm   2.0 mph 93 % 0.00 in
21:30 64.2 °F 62.1 °F 29.99 in Calm   1.0 mph 93 % 0.00 in
21:35 64.3 °F 62.2 °F 29.99 in Calm   1.0 mph 93 % 0.00 in
21:40 64.2 °F 62.4 °F 29.99 in Calm     94 % 0.00 in
21:45 64.2 °F 62.4 °F 29.99 in Calm   1.0 mph 94 % 0.00 in
21:50 64.3 °F 62.5 °F 29.99 in East 1.0 mph 1.0 mph 94 % 0.00 in
21:55 64.3 °F 62.5 °F 29.98 in Calm   1.0 mph 94 % 0.00 in
22:05 64.3 °F 62.5 °F 29.98 in Calm   2.0 mph 94 % 0.00 in
22:10 64.3 °F 62.5 °F 29.98 in Calm   1.0 mph 94 % 0.00 in
22:15 64.3 °F 62.5 °F 29.98 in Calm   1.0 mph 94 % 0.00 in
22:18 64.3 °F 62.5 °F 29.98 in SE 0.6 mph 1.2 mph 94 % 0.00 in
22:20 64.3 °F 62.5 °F 29.98 in Calm   1.0 mph 94 % 0.00 in
22:25 64.3 °F 62.5 °F 29.98 in Calm   1.0 mph 94 % 0.00 in
22:30 64.3 °F 62.5 °F 29.98 in Calm   1.0 mph 94 % 0.00 in
22:35 64.3 °F 62.8 °F 29.98 in Calm   1.0 mph 95 % 0.00 in
22:40 64.3 °F 62.8 °F 29.98 in Calm   1.0 mph 95 % 0.00 in
22:45 64.3 °F 62.8 °F 29.98 in Calm   2.0 mph 95 % 0.00 in
22:50 64.4 °F 62.9 °F 29.98 in Calm   2.0 mph 95 % 0.00 in
22:55 64.4 °F 62.9 °F 29.97 in Calm   1.0 mph 95 % 0.00 in
23:05 64.4 °F 62.9 °F 29.97 in Calm   2.0 mph 95 % 0.00 in
23:10 64.4 °F 62.9 °F 29.97 in SE 1.0 mph 2.0 mph 95 % 0.00 in
23:15 64.4 °F 62.9 °F 29.97 in Calm   1.0 mph 95 % 0.00 in
23:20 64.4 °F 62.9 °F 29.97 in Calm   1.0 mph 95 % 0.00 in
23:25 64.4 °F 62.9 °F 29.97 in Calm   1.0 mph 95 % 0.00 in
23:30 64.5 °F 63.0 °F 29.97 in Calm   1.0 mph 95 % 0.00 in
23:35 64.4 °F 62.9 °F 29.96 in Calm   1.0 mph 95 % 0.00 in
23:40 64.4 °F 62.9 °F 29.96 in Calm   1.0 mph 95 % 0.00 in
23:45 64.4 °F 62.9 °F 29.95 in Calm   1.0 mph 95 % 0.00 in
23:50 64.4 °F 62.9 °F 29.95 in Calm   1.0 mph 95 % 0.00 in
23:55 64.4 °F 62.9 °F 29.95 in Calm   1.0 mph 95 % 0.00 in
Crab Meadow Weather
Compliments of Weather Underground - 3.75 mb

Script developed by  Jim McMurry - jmcmurry@mwt.net Adapted for the template by  Wim van der Kuil - Leuven-Template.eu

Recycling: Recycling one aluminum can saves enough energy to run a TV for three hours -- or the equivalent of a half a gallon of gasoline.